User: anonymous   Login
Location: Vancouver
(49.2500°N, 123.1330°W)
Time: 02:52:05
(UTC-07:00)
Language:

ERS-2 - Orbit

View from above orbital plane
View from above orbital plane
View from above satellite
View from above satellite

Ground track
Ground track

The orbit data is extracted from the following two-line orbital elements,

1 23560U 95021A   18173.87237344 +.00001026 +00000-0 +49068-4 0  9991
2 23560 098.5353 221.2232 0004789 117.0806 243.0916 15.21801318231715
Epoch (UTC): 22 June 2018 20:56:13
Eccentricity: 0.0004789
inclination: 98.5353°
perigee height: 497 km
apogee height: 504 km
right ascension of ascending node: 221.2232°
argument of perigee: 117.0806°
revolutions per day: 15.21801318
mean anomaly at epoch: 243.0916°
orbit number at epoch: 23171

The dashed part of the orbit path shows where the satellite is in the earth's shadow,  

DLR